#timestamp,LO_Frequency,Hit,StdDev 
1563123615.2,286046998.6,N
1563123635.0,286046998.4,N
1563123635.9,286046998.4,N
1563123655.8,286046998.7,N
1563123675.8,286047000.7,N
1563123695.7,286047001.0,N
1563123715.6,286047000.3,N
1563123735.4,286047000.5,N
1563123755.2,286047000.8,N
1563123775.1,286047001.1,N
1563123776.0,286047001.1,N
1563123795.8,286047000.4,N
1563123815.7,286047000.2,N
1563123835.5,286046999.8,N
1563123855.3,286047000.6,N
1563123875.2,286046999.8,N
1563123895.5,286047002.4,N
1563123915.4,286047002.3,N
1563123935.2,286047002.8,N
1563123955.0,286047002.3,N
1563123956.0,286047002.3,N
1563123975.8,286047002.6,N
1563123995.6,286047002.7,N
1563124015.5,286047002.3,N
1563124035.3,286047002.2,N
1563124055.2,286047000.2,N
1563124075.9,286047000.8,N
1563124095.7,286046999.9,N
1563124115.6,286046999.7,N
1563124135.4,286046999.9,N
1563124155.2,286047000.6,N
1563124175.1,286047002.8,N
1563124176.0,286047002.8,N
1563124195.8,286046999.8,N
1563124215.7,286047000.4,N
1563124235.5,286047000.4,N
1563124255.3,286046999.9,N
1563124275.2,286046999.7,N
1563124295.0,286047002.5,N
1563124295.9,286047002.5,N
1563124315.8,286047002.3,N
1563124335.6,286047002.7,N
1563124355.4,286047002.4,N
1563124375.3,286047002.7,N
1563124395.1,286047000.4,N
1563124415.9,286047002.7,N
1563124435.7,286047002.1,N
1563124455.5,286047002.8,N
1563124475.4,286047001.5,N
1563124495.3,286047001.5,N
1563124515.1,286047001.6,N
1563124535.8,286047001.3,N
1563124555.7,286047004.4,Y
1563124575.8,286047002.5,P
1563124595.6,286047002.3,P
1563124615.4,286047002.4,P
1563124635.3,286047000.1,N
1563124655.1,286047000.7,N
1563124675.8,286047000.2,N
1563124695.7,286047000.2,N
1563124715.5,286047002.8,N
1563124735.4,286047002.8,N
1563124755.2,286047002.6,N
1563124775.0,286047002.3,N
1563124775.9,286047002.3,N
1563124795.8,286047000.0,N
1563124815.6,286046999.8,N
1563124835.5,286047002.0,N
1563124855.3,286047002.2,N
1563124875.1,286047002.8,N
1563124895.9,286046999.8,N
1563124915.7,286046999.8,N
1563124935.5,286047000.2,N
1563124955.4,286047002.3,N
1563124975.2,286047002.6,N
1563124995.1,286047001.9,N
1563124996.0,286047001.9,N
1563125015.8,286047001.8,N
1563125035.6,286047002.8,N
1563125055.5,286047002.6,N
1563125075.3,286047001.6,N
1563125095.1,286047002.4,N
1563125115.9,286047001.8,N
1563125135.7,286047004.4,Y
1563125155.6,286046999.7,P
1563125175.4,286046999.8,N
1563125195.2,286046999.8,N
1563125215.1,286047001.9,N
1563125216.0,286047001.9,N
1563125235.8,286047002.0,N
1563125255.7,286047002.5,N
1563125275.5,286047000.2,N
1563125295.3,286047002.6,N
1563125315.2,286046999.9,N
1563125335.0,286047001.9,N
1563125335.9,286047001.9,N
1563125355.8,286047004.7,Y
1563125375.6,286047006.0,P
1563125395.4,286047004.4,N
1563125415.3,286047000.6,N
1563125435.1,286047000.1,N
1563125455.8,286047000.7,N
1563125475.7,286047002.6,N
1563125495.5,286046999.9,N
1563125515.4,286046999.8,N
1563125535.2,286046999.8,N
1563125555.0,286047000.1,N
1563125555.9,286047000.1,N
1563125575.8,286047000.2,N
1563125595.6,286047000.3,N
1563125615.5,286046999.7,N
1563125635.3,286047002.7,N
1563125655.1,286047002.3,N
1563125675.9,286046999.7,N
1563125695.7,286046999.9,N
1563125715.5,286046998.3,N
1563125735.4,286046999.1,N
1563125755.2,286046999.5,N
1563125775.1,286047000.8,N
1563125776.0,286047000.8,N
1563125795.8,286047000.5,N
1563125815.6,286046999.8,N
1563125835.5,286047002.5,N
1563125855.3,286046999.7,N
1563125875.1,286047002.1,N
1563125895.9,286047000.6,N
1563125915.7,286046999.0,N
1563125935.6,286046998.2,N
1563125955.4,286046998.8,N
1563125975.2,286047000.5,N
1563125995.1,286047002.6,N
1563125996.0,286047002.6,N
1563126015.8,286047002.1,N
1563126035.7,286047004.0,Y
1563126055.5,286046999.7,P
1563126075.3,286047002.3,P
1563126095.2,286047002.7,N
1563126115.0,286047002.6,N
1563126115.9,286047002.6,N
1563126135.7,286047002.6,N
1563126155.6,286047004.3,Y
1563126175.4,286047002.8,P
1563126195.3,286047000.4,N
1563126215.1,286046998.7,N
1563126235.1,286046999.4,N
1563126236.0,286046999.4,N
1563126255.8,286046999.3,N
1563126275.7,286046998.7,N
1563126295.5,286046998.1,N
1563126315.3,286046998.4,N
1563126335.2,286046998.6,N
1563126355.0,286047001.2,N
1563126355.9,286047001.2,N
1563126375.8,286047001.2,N
1563126395.6,286046998.1,N
1563126415.4,286047000.4,N
1563126435.3,286047000.4,N
1563126455.1,286046998.1,N
1563126475.8,286046998.5,N
1563126495.7,286046998.9,N
1563126515.5,286046998.2,N
1563126535.4,286046998.7,N
1563126555.2,286046998.8,N
1563126575.0,286046996.9,N
1563126575.9,286046996.9,N
1563126595.8,286046997.2,N
1563126615.6,286046995.6,N
1563126635.5,286046996.2,N
1563126655.3,286046995.0,N
1563126675.1,286046997.4,N
1563126695.9,286046995.0,N
1563126715.7,286046995.0,N
1563126735.5,286046995.3,N
1563126755.4,286046995.6,N
1563126775.2,286046995.8,N
1563126795.1,286046995.6,N
1563126796.0,286046995.6,N
1563126815.8,286046991.9,Y
1563126835.8,286046996.3,P
1563126855.7,286046995.1,P
1563126875.5,286046996.3,P
1563126895.4,286046996.3,Y
1563126915.2,286047001.1,P
1563126935.0,286047000.7,N
1563126935.9,286047000.7,N
1563126955.8,286046999.9,N
1563126975.6,286047001.2,N
1563126995.5,286047000.3,N
1563127015.3,286047002.0,N
1563127035.1,286047002.4,N
1563127055.9,286047001.8,N
1563127075.7,286047001.9,N
1563127095.5,286047002.0,N
1563127115.4,286047002.3,N
1563127135.2,286047001.8,N
1563127155.1,286047001.9,N
1563127156.0,286047001.9,N
1563127175.8,286047004.1,N
1563127195.6,286047003.9,N
